Hourly Data Report for October 27, 2013

All times are specified in Local Standard Time (LST). Add 1 hour to adjust for Daylight Saving Time where and when it is observed.

GJOA HAVEN A
NUNAVUT

68°38'08.000" N
95°51'01.000" W
46.90 m
2302337
71597
YHK

Download Data

Hourly Data (October 2013)
Hourly Data Report for October 27, 2013
Temp Definition
°C
Dew Point Temp Definition
°C
Rel Hum Definition
%
Wind Dir Definition
10's deg

Wind Spd Definition
km/h
Visibility Definition
km
Stn Press Definition
kPa
Hmdx Definition


Wind Chill Definition


Weather Definition


TIME
00:00 Legend Double Dagger -13.4 -14.8 89 32 32 9.7 101.05   -24 LegendNANA
01:00 Legend Double Dagger -13.5 -14.9 89 31 30 9.7 101.05   -24 LegendNANA
02:00 Legend Double Dagger -13.5 -14.8 90 30 35 9.7 101.00   -25 LegendNANA
03:00 Legend Double Dagger -13.4 -14.8 89 29 37 11.3 100.98   -25 LegendNANA
04:00 Legend Double Dagger -14.2 -15.5 90 30 33 4.8 100.98   -25 LegendNANA
05:00 Legend Double Dagger -14.3 -15.7 89 30 33 8.1 100.94   -26 LegendNANA
06:00 Legend Double Dagger -13.1 -14.4 90 31 32 4.8 100.93   -24 LegendNANA
07:00 Legend Double Dagger -12.0 -13.5 89 32 33 4.8 100.93   -23 LegendNANA
08:00 Legend Double Dagger -12.1 -13.6 89 32 33 2.4 100.93   -23 LegendNANA
09:00 Legend Double Dagger -13.1 -14.6 89 33 45 1.2 100.93   -25 LegendNANA
10:00 Legend Double Dagger -13.5 -15.1 88 32 35 2.4 100.95   -25 LegendNANA
11:00 Legend Double Dagger -14.3 -15.9 88 31 32 8.1 100.98   -25 LegendNANA
12:00 Legend Double Dagger -14.5 -16.1 88 31 32 8.1 100.98   -26 LegendNANA
13:00 Legend Double Dagger -13.9 -15.5 88 31 26 16.1 100.98   -24 LegendNANA
14:00 Legend Double Dagger -14.0 -15.4 89 31 33 6.4 100.90   -25 LegendNANA
15:00 Legend Double Dagger -13.5 -14.9 89 31 37 2.4 100.89   -25 LegendNANA
16:00 Legend Double Dagger -13.5 -14.9 89 31 42 2.4 100.85   -26 LegendNANA
17:00 Legend Double Dagger -13.3 -14.7 89 31 37 4.8 100.85   -25 LegendNANA
18:00 Legend Double Dagger -12.9 -14.2 90 30 39 2.0 100.78   -25 LegendNANA
19:00 Legend Double Dagger -12.4 -13.6 91 30 41 1.2 100.70   -24 LegendNANA
20:00 Legend Double Dagger -11.9 -13.2 91 31 45 1.2 100.62   -24 LegendNANA
21:00 Legend Double Dagger -12.4 -13.6 91 32 42 1.2 100.58   -24 LegendNANA
22:00 Legend Double Dagger -15.6 -17.3 87 34 41 1.6 100.65   -28 LegendNANA
23:00 Legend Double Dagger -17.4 -19.1 87 33 37 1.6 100.72   -30 LegendNANA

Notes on Data Quality.

Legend

  • E = Estimated
  • M = Missing
  • NA = Not Available
  • ‡ = Partner data that is not subject to review by the National Climate Archives
Date modified: